Location: PACMO
(41.3967°N, 90.3760°W)
Time: 14:35:08
(UTC-06:00)

Daily predictions for brighter satellites

Satellite Brightness Start Highest point End
(mag) Time Altitude Azimuth Time Altitude Azimuth Time Altitude Azimuth
Cosmos 1486 Rocket 4.1 16:57:43 10° S 17:02:48 57° ESE 17:07:57 10° NNE
Cosmos 2082 Rocket 2.9 16:58:26 10° N 17:03:32 33° ENE 17:08:34 10° ESE
IRAS Rocket 4.2 16:58:27 10° SSE 17:03:58 74° ENE 17:09:29 10° NNW
Cosmos 1933 4.2 17:01:03 10° SSW 17:05:00 53° W 17:08:56 10° N
CENTAUR R/B 3.5 17:00:02 10° WSW 17:05:52 45° NW 17:12:32 10° NNE
ERS-2 3.6 17:05:51 10° ESE 17:08:18 17° ENE 17:10:46 10° NNE
ERBS 4.5 17:05:59 10° WNW 17:09:02 31° SW 17:12:06 10° SSE
COSMOS 2455 3.4 17:03:52 10° SW 17:09:47 60° WNW 17:15:46 10° NNE
CZ-4 R/B 1.9 17:06:49 10° SE 17:10:18 34° ENE 17:13:47 10° N
Cosmos 972 4.4 17:06:01 10° NNW 17:10:59 64° ENE 17:15:48 10° SSE
Meteor 1-20 Rocket 4.3 17:10:20 10° N 17:15:46 54° ENE 17:21:06 10° SSE
Okean 2 Rocket 4.3 17:13:05 10° NNE 17:16:36 22° ENE 17:20:04 10° ESE
Cosmos 1633 3.2 17:16:01 10° NNE 17:19:22 33° ENE 17:22:43 10° SE
IDEFIX/ARIANE 42P 4.4 17:16:17 10° SSW 17:21:03 36° W 17:25:50 10° NNW
Cosmos 1733 Rocket 4.0 17:16:50 10° NNW 17:21:10 53° W 17:25:30 10° S
Meteor 1-25 Rocket 4.3 17:15:29 10° N 17:21:19 68° E 17:27:04 10° SSE
Cosmos 1354 Rocket 4.4 17:16:55 10° S 17:21:52 43° ESE 17:26:50 10° NNE
Cosmos 1908 Rocket 3.5 17:17:38 10° N 17:21:57 63° E 17:26:14 10° SSE
Cosmos 405 Rocket 4.1 17:19:59 10° SE 17:22:41 19° E 17:25:14 11° NE
Cosmos 1844 Rocket 4.5 17:20:38 10° WSW 17:25:28 29° NW 17:30:19 10° N
Cosmos 1782 3.1 17:24:27 10° SSE 17:28:18 47° E 17:32:09 10° NNE
BREEZE-M R/B 2.2 17:26:26 10° WNW 17:29:02 81° NNE 17:33:08 10° ESE
CZ-2C R/B 3.8 17:24:51 10° NNE 17:29:16 53° E 17:33:43 10° S
Cosmos 1464 Rocket 4.3 17:24:15 10° SSE 17:29:56 42° E 17:35:39 10° NNE
BREEZE-M DEB (TANK) 3.2 17:29:12 10° NW 17:30:57 22° NNE 17:32:12 17° ENE
CZ-2C R/B 4.2 17:27:57 10° SSW 17:32:34 36° W 17:37:19 10° NNW
SPOT 3 Rocket 4.3 17:29:03 10° SE 17:33:34 31° ENE 17:38:07 10° N
Cosmos 44 Rocket 3.8 17:30:29 10° NNW 17:35:04 39° NE 17:39:43 10° ESE
FENGYUN 3A 4.4 17:34:19 10° SE 17:38:59 31° ENE 17:43:39 10° N
Cosmos 292 Rocket 4.2 17:35:05 10° N 17:39:30 37° ENE 17:43:54 10° SE
Cosmos 2233 Rocket 4.4 17:34:34 10° SSW 17:40:47 69° W 17:47:00 10° N
Okean 1-7 3.1 17:36:47 10° S 17:41:03 55° E 17:45:22 10° NNE
Sich 1 Rocket 3.7 17:44:00 10° N 17:48:27 80° W 17:52:54 10° S
Meteor 1-27 Rocket 4.3 17:43:21 10° SSE 17:48:44 38° E 17:54:11 10° NNE
Lacrosse 5 4.0 17:51:24 10° NNW 17:53:55 14° N 17:56:22 10° NNE
Cosmos 44 3.2 17:49:58 10° NNW 17:54:38 62° NE 17:59:32 10° SE
Cosmos 1833 Rocket 2.6 17:49:34 10° NNW 17:55:14 83° ENE 18:00:51 10° SSE
MONITOR-E 4.4 17:52:30 10° SSE 17:55:24 43° ENE 17:58:20 10° N
MTI 3.6 17:56:06 14° NNE 17:58:52 78° ESE 18:02:04 10° S
Cosmos 2369 Rocket 3.9 17:56:00 10° SE 17:57:34 14° ESE 17:57:34 14° ESE
Meteor 1-10 Rocket 4.2 17:53:44 10° S 17:59:24 78° E 18:05:13 10° NNE
USA 116 4.2 17:59:53 10° N 18:04:11 63° WNW 18:07:57 10° SSW
NOAA 12 4.2 18:00:01 10° SSE 18:05:10 52° ENE 18:10:19 10° N
Cosmos 2297 3.8 17:59:44 10° SSW 18:05:28 83° WNW 18:11:15 10° NNE
Cosmos 1782 Rocket 3.8 18:02:26 10° NNW 18:06:47 72° W 18:11:07 10° S
Cosmos 405 3.0 18:04:22 10° N 18:07:55 57° ENE 18:11:27 10° SSE
Cosmos 2278 Rocket 3.7 18:02:48 10° WSW 18:07:57 35° WNW 18:13:08 10° N
ALOS 2.3 18:05:37 10° SSE 18:10:11 56° ENE 18:14:46 10° N
Cosmos 1513 Rocket 4.4 18:04:27 10° S 18:10:45 79° E 18:16:58 10° N
Cosmos 540 Rocket 3.7 18:05:38 10° NNW 18:10:47 71° WSW 18:15:54 10° S
YAOGAN 1 3.0 18:08:19 10° S 18:12:36 63° W 18:16:55 10° NNW
COSMO-SKYMED 1 2.5 18:09:25 10° NNE 18:13:47 88° ESE 18:18:07 10° SSW
Tiangong 1 2.6 18:14:25 10° SSW 18:15:53 21° S 18:15:53 21° S
USA 234 3.4 18:14:25 27° ENE 18:17:53 54° SE 18:24:15 10° SSW
Cosmos 968 Rocket 3.5 18:13:10 10° S 18:18:14 57° ESE 18:20:41 29° NE
COSMOS 2487 4.0 18:15:12 10° N 18:16:47 23° N 18:16:47 23° N
Cosmos 1606 4.4 18:18:06 10° SW 18:21:33 33° WNW 18:25:01 10° N
Cosmos 1441 Rocket 3.1 18:18:43 10° S 18:22:40 87° E 18:24:29 31° N
Cosmos 1891 Rocket 4.5 18:19:03 10° S 18:25:13 83° W 18:31:19 10° N
CZ-4C R/B 2.9 18:18:53 10° NNW 18:26:02 67° NE 18:32:49 15° SE
Meteor 1-11 Rocket 3.6 18:24:10 10° N 18:30:02 83° E 18:35:44 10° S
EO 1 Del DPAF 4.0 18:32:19 17° N 18:35:03 50° WNW 18:38:45 10° SSW
DMSP B5D1-3 4.4 18:34:56 17° NNE 18:39:00 90° NNW 18:44:09 10° SSW
Nadezhda 4 Rocket 3.8 18:33:10 10° N 18:39:19 81° E 18:45:26 10° S
ERS-2 4.0 18:38:26 10° SSW 18:41:44 31° W 18:45:02 10° NW
Cosmos 2151 Rocket 3.4 18:37:35 10° N 18:42:01 88° E 18:46:27 10° S
Cosmos 1634 Rocket 4.3 18:37:21 10° SSE 18:42:05 42° ESE 18:42:05 42° ESE
CZ-4 R/B 4.3 18:42:59 10° SW 18:45:27 16° W 18:47:55 10° NW
Cosmos 2082 Rocket 3.7 18:42:27 10° NW 18:47:37 37° WSW 18:52:44 10° S
BREEZE-M DEB (TANK) 3.5 18:45:01 10° NW 18:46:38 33° NNW 18:46:38 33° NNW
Cosmos 2034 Rocket 4.4 18:42:03 10° SSW 18:48:21 65° W 18:54:41 10° N
OAO 3 Rocket 4.1 18:44:03 10° WSW 18:48:33 36° S 18:48:44 36° SSE
Gblst 52 Del rocket 4.3 18:46:02 10° SSW 18:51:28 56° SE 18:51:35 55° SE
Timation 2 Rocket 4.1 18:51:30 10° NNW 18:58:17 82° WSW 19:03:16 18° SSE
Cosmos 1092 Rocket 3.8 18:52:16 10° N 18:58:27 80° E 19:04:38 10° S
USA 229 DEB 3.5 19:02:42 10° SSW 19:09:28 83° ESE 19:10:13 72° NE
USA 229 3.5 19:02:50 10° SSW 19:09:34 82° ESE 19:10:16 72° ENE
FengYun 1-2 T 4.4 19:10:59 10° S 19:16:28 70° WSW 19:22:03 10° NNW
Lacrosse 5 4.5 19:35:09 10° NNW 19:35:34 11° NNW 19:35:34 11° NNW
Cosmos 2369 Rocket 3.7 19:36:47 10° SSW 19:39:26 29° SW 19:39:26 29° SW
USA 234 4.0 20:01:47 46° WNW 20:01:47 46° WNW 20:07:05 10° WSW
CZ-4C R/B 4.5 20:08:06 10° NW 20:14:21 30° WSW 20:18:12 20° SSW
